Location: Ferchesar
(52.6477°N, 12.4298°E)
Time: 03:56:58
(UTC+01:00)

Explorer 7 - Pass Details

Date: 07 December 2021
Orbit: 483 x 674 km, 50.3° (Epoch: 21 January)

Event Time Altitude Azimuth Distance (km) Brightness Sun altitude
Rises 06:26:11 0° 249° (WSW) 2,822 - -14.3°
Reaches altitude 10° 06:28:34 10° 245° (WSW) 1,888 - -13.9°
Exits shadow 06:28:58 12° 244° (WSW) 1,729 8.9 -13.9°
Maximum altitude 06:32:45 54° 168° (SSE) 671 7.4 -13.3°
Drops below altitude 10° 06:36:42 10° 91° (E) 1,777 10.6 -12.8°
Sets 06:38:53 0° 86° (E) 2,639 11.6 -12.4°
